Flag for Germany Weather past 2 weeks in Sonneberg, Thuringia, Germany

Now
26 °F

Partly sunny.


Feels Like: 26 °F
Forecast: 23 / 29 °F
Wind: 1 mph from South

Location: Hof

Current Time: Feb 1, 2015 at 8:59:56 AM

Latest Report: Feb 1, 2015 at 8:00 AM


Visibility: 9 mi

Pressure: 29.23 "Hg

Humidity: 95%

Dew point: 25 °F

Location of SonnebergLocation

Historic Weather in Sonneberg — Graph

°F

Sonneberg temperature yesterday

Maximum temperature yesterday: 30 °F (at 3:00 PM)
Minimum temperature yesterday: 21 °F (at 1:00 AM)
Average temperature yesterday: 27 °F

Past Weeks' High & Low Weather Summary

 TemperatureHumidityPressure
High36 °F (Jan 17, 12:00 PM)100% (Jan 17, 2:00 PM)30.37 "Hg (Jan 17, 2:00 PM)
Low21 °F (Jan 31, 1:00 AM)70% (Jan 21, 1:00 PM)28.70 "Hg (Jan 30, 5:00 AM)
Average30 °F94%29.84 "Hg
* Reported Jan 17 8:00 AM — Feb 1 8:00 AM, Sonneberg, Weather by CustomWeather, © 2014

Note: Actual official high and low records may vary slightly from our data, if they occured in-between our weather recording intervals... More about our weather records

Advertising

Sonneberg weather history for previous 24 hours

 ConditionsComfort  
Time TempWeatherWind HumidityBarometerVisibility
8:00 AM
Feb 1
26 °FPartly sunny.1 mph95%29.23 "Hg9 mi
7:00 AM28 °FOvercast.1 mph89%29.21 "Hg19 mi
6:00 AM29 °FLow clouds.2 mph90%29.18 "Hg16 mi
5:00 AM29 °FLow clouds.2 mph93%29.18 "Hg11 mi
3:00 AM29 °FSnow flurries. Low clouds.3 mph97%29.18 "Hg2 mi
2:00 AM28 °FLight snow. Low clouds.3 mph97%29.18 "Hg1 mi
1:00 AM28 °FLight snow. Low clouds.3 mph96%29.18 "Hg2 mi
12:00 AM29 °FLight snow. Low clouds.3 mph95%29.18 "Hg1 mi
11:00 PM
Jan 31
28 °FLight snow. Low clouds.2 mph95%29.18 "Hg5 mi
9:00 PM28 °FLow clouds.3 mph93%29.18 "Hg9 mi
8:00 PM29 °FLow clouds.3 mph91%29.15 "Hg12 mi
7:00 PM29 °FLow clouds.2 mph90%29.15 "Hg9 mi
6:00 PM29 °FOvercast.2 mph90%29.12 "Hg11 mi
5:00 PM29 °FOvercast.3 mph88%29.09 "Hg11 mi
4:00 PM30 °FSnow flurries. Overcast.5 mph86%29.06 "Hg12 mi
3:00 PM30 °FLow clouds.3 mph86%29.06 "Hg16 mi
2:00 PM30 °FSnow flurries. Low clouds.6 mph90%29.06 "Hg9 mi
1:00 PM29 °FSnow flurries. Low clouds.5 mph91%29.03 "Hg6 mi
12:00 PM29 °FSnow flurries. Low clouds.5 mph95%29.03 "Hg9 mi
11:00 AM28 °FLight snow. Low clouds.6 mph91%29.00 "Hg6 mi
9:00 AM27 °FSnow. Low clouds.5 mph96%28.97 "Hg1 mi
8:00 AM26 °FLight snow. Low clouds.3 mph94%28.97 "Hg1 mi
Weather by CustomWeather, © 2014

See weather overviewHow to use our weather pages